TITAN 3C TRANSTAGE DEB, 1835

Orbit data source: Space-Track

TITAN 3C TRANSTAGE DEB, 1835 is space debris in LEO originally from a launch on Fri, 15 Oct 1965 UTC launched from the Air Force Eastern Test Range (AFETR). Debris objects in space refer to the collection of defunct objects orbiting the Earth. Examples of debris include non-operational satellites, rocket bodies, and fragments generated from explosions, collisions, or faulty payload assembly.

Loading next visibility...
Identifier
1835, 1965-082EA
Orbit
LEO
Country
Flag of USUS
Related business
Manufacturer
Unknown
Mission
Spacecraft
Bus & Motor
Unknown
Mass
Unknown
Launch date (UTC)
1965-10-15 (60 years ago)
Launch vehicle
Unknown
Launch site
Air Force Eastern Test Range (AFETR)
Object type
Payload
Rocket body
Debris
Shape & HBR
Unknown shape, 0.2 m
Radar Cross Section
Small (<0.1 m²)

Expand to show TLE details & history
Last TLE update: 10 hours ago

TLE from 10 hours ago
0 TITAN 3C TRANSTAGE DEB
1 01835U 65082EA  26102.18368355  .00003213  00000-0  19680-3 0  9994
2 01835  32.3946  80.5936 0012143 309.8364  50.1231 15.08713599237395
Epoch: 2026-04-12T04:24Z
TLE epoch observation values (Epoch: 2026-04-12T04:24:30.258Z)
Latitude
Longitude
174.07524°
Altitude
533.399 km
Speed
7.601 km/s
True Right ascension
05h 22m 22s
True Declination
0° 00' 00"
Sunlit
Object was in daylight at epoch
Visualization orbit readout
Latitude
Unknown
Longitude
Unknown
Altitude
Unknown
Speed
Unknown
Apparent Right ascension
Unknown
Apparent Declination
Unknown
Sunlit
N/A
Visualization observer readout
Local Sidereal Time
20:42:22
Azimuth
Unknown
Elevation
Unknown
Doppler factor
Unknown
Orbital elements
Apogee altitude
552.166 km
Perigee altitude
535.355 km
Semi-major axis
6,921.898 km
Eccentricity
0.00121
Inclination
32.3946°
RAAN
80.5936°
Arg. of periapsis
309.8364°
True anomaly
50.22999°
Mean anomaly
50.1231°
Eccentric anomaly
50.17653°
Mean motion
3.76882 °/min
Orbital period
95.52 mins
BSTAR
0.0001968

Documentation

Showing up to 5 results
|